Mullan Pass, ID

3:23 AM PST on January 20, 2018 (GMT -0800)
Mullan Pass

Weather History for KMLP - December, 2013

Change the Weather History Date:

Monday, December 2, 2013

  Actual Average (K3TH) Record (K3TH)
Temperature  
Mean Temperature 19 °F -  
Max Temperature 32 °F 34 °F 41 °F (1997)
Min Temperature 6 °F 28 °F 28 °F (1996)
Degree Days  
Heating Degree Days 46    
Moisture  
Dew Point 19 °F    
Average Humidity 93    
Maximum Humidity 100    
Minimum Humidity 80    
Precipitation  
Precipitation 0.47 in - - ()
Sea Level Pressure  
Sea Level Pressure 29.56 in    
Wind  
Wind Speed 9 mph (West)    
Max Wind Speed 18 mph    
Max Gust Speed 40 mph    
Visibility 3 miles    
Events Fog , Rain , Snow    
Averages and records for this station are not official NWS values.
T = Trace of Precipitation, MM = Missing Value Source: NWS Daily Summary

Daily Weather History Graph

Daily Weather History Graph

Search for Another Location

Airport or City:

Trip Planner

Search our weather history database for the weather conditions in past years. The results will help you decide how hot, cold, wet, or windy it might be!

Date:

Astronomy

Dec. 02, 2013 Rise Set
Actual Time 7:11 AM PST 3:53 PM PST
Civil Twilight 6:35 AM PST 4:28 PM PST
Nautical Twilight 5:57 AM PST 5:07 PM PST
Astronomical Twilight 5:20 AM PST 5:44 PM PST
Moon 6:38 AM PST (12/2) 4:02 PM PST (12/2)
Length of Visible Light 9h 52m
Length of Day
8h 42m
Waning Crescent, 0% of the Moon is Illuminated
Dec 2
Waning Crescent
Dec 2
New
Dec 9
First Quarter
Dec 17
Full
Dec 25
Last Quarter

Hourly Weather History & Observations

Time (PST) Temp. Windchill Dew Point Humidity Pressure Visibility Wind Dir Wind Speed Gust Speed Precip Events Conditions
12:00 AM 32.0 °F 22.1 °F 30.2 °F 93% 29.57 in 2.0 mi West 13.8 mph 27.6 mph 0.01 in Snow Light Snow
12:10 AM 32.0 °F 22.5 °F 30.2 °F 93% 29.57 in 4.0 mi WNW 12.7 mph 34.5 mph 0.01 in Snow Light Snow
12:19 AM 32.0 °F 24.2 °F 32.0 °F 100% 29.56 in 1.8 mi West 9.2 mph 28.8 mph 0.02 in Snow Light Snow
12:23 AM 32.0 °F 24.8 °F 32.0 °F 100% 29.56 in 0.8 mi SSW 8.1 mph 26.5 mph 0.03 in Snow Light Snow
12:31 AM 32.0 °F 22.5 °F 30.2 °F 93% 29.56 in 1.0 mi West 12.7 mph 33.4 mph 0.03 in Snow Light Snow
12:34 AM 32.0 °F 23.6 °F 30.2 °F 93% 29.56 in 2.0 mi WSW 10.4 mph 33.4 mph 0.04 in Snow Light Snow
12:44 AM 32.0 °F 23.6 °F 30.2 °F 93% 29.55 in 1.8 mi West 10.4 mph 24.2 mph 0.05 in Snow Light Snow
12:48 AM 32.0 °F 23.6 °F 30.2 °F 93% 29.55 in 3.0 mi West 10.4 mph 24.2 mph 0.05 in Snow Light Snow
12:53 AM 32.0 °F 22.5 °F 30.9 °F 96% 29.45 in 3.0 mi WSW 12.7 mph 29.9 mph 0.06 in Snow Light Snow
1:06 AM 32.0 °F 23.6 °F 30.2 °F 93% 29.55 in 2.5 mi WSW 10.4 mph 26.5 mph 0.01 in Snow Light Snow
1:08 AM 32.0 °F 20.8 °F 30.2 °F 93% 29.55 in 3.0 mi WSW 17.3 mph 33.4 mph 0.01 in Snow Light Snow
1:18 AM 32.0 °F 21.2 °F 30.2 °F 93% 29.54 in 7.0 mi WSW 16.1 mph 31.1 mph 0.01 in Rain Light Freezing Rain
1:31 AM 30.2 °F 18.1 °F 30.2 °F 100% 29.54 in 10.0 mi WNW 18.4 mph 33.4 mph 0.01 in Rain Light Freezing Rain
1:39 AM 30.2 °F 18.9 °F 30.2 °F 100% 29.52 in 10.0 mi WNW 16.1 mph 36.8 mph 0.01 in Rain Light Freezing Rain
1:46 AM 30.2 °F 21.3 °F 30.2 °F 100% 29.53 in 6.0 mi West 10.4 mph 36.8 mph 0.01 in Snow Light Snow
1:50 AM 30.2 °F 19.8 °F 30.2 °F 100% 29.53 in 4.0 mi WNW 13.8 mph 40.3 mph 0.01 in Snow Light Snow
1:53 AM 30.9 °F 19.4 °F 30.0 °F 96% 29.43 in 3.0 mi West 17.3 mph 40.3 mph 0.01 in Snow Light Snow
2:28 AM 30.2 °F 20.8 °F 28.4 °F 93% 29.51 in 1.8 mi West 11.5 mph 39.1 mph 0.01 in Snow Light Snow
2:32 AM 30.2 °F 21.9 °F 28.4 °F 93% 29.51 in 1.2 mi West 9.2 mph 34.5 mph 0.01 in Snow Light Snow
2:35 AM 30.2 °F 19.8 °F 28.4 °F 93% 29.51 in 1.5 mi WSW 13.8 mph 29.9 mph 0.01 in Snow Light Snow
2:40 AM 30.2 °F 20.8 °F 28.4 °F 93% 29.51 in 2.5 mi West 11.5 mph 29.9 mph 0.01 in Snow Light Snow
2:44 AM 30.2 °F 19.3 °F 28.4 °F 93% 29.51 in 2.5 mi WSW 15.0 mph 32.2 mph 0.01 in Snow Light Snow
2:51 AM 30.2 °F 20.8 °F 28.4 °F 93% 29.50 in 2.5 mi West 11.5 mph 34.5 mph 0.01 in Snow Light Snow
2:53 AM 30.0 °F 22.4 °F 28.0 °F 92% 29.41 in 2.5 mi West 8.1 mph 34.5 mph 0.01 in Snow Light Snow
3:00 AM 30.2 °F 21.3 °F 28.4 °F 93% 29.51 in 3.0 mi West 10.4 mph 25.3 mph 0.01 in Snow Light Snow
3:03 AM 30.2 °F 22.6 °F 28.4 °F 93% 29.50 in 2.0 mi West 8.1 mph 27.6 mph 0.02 in Snow Light Snow
3:05 AM 30.2 °F 19.3 °F 28.4 °F 93% 29.50 in 1.8 mi West 15.0 mph 27.6 mph 0.02 in Snow Light Snow
3:13 AM 30.2 °F 20.8 °F 28.4 °F 93% 29.49 in 1.0 mi WSW 11.5 mph 27.6 mph 0.03 in Snow Light Snow
3:42 AM 28.4 °F 21.2 °F 28.4 °F 100% 29.49 in 1.0 mi Variable 6.9 mph 21.9 mph 0.06 in Snow Light Snow
3:49 AM 28.4 °F 18.5 °F 26.6 °F 93% 29.49 in 1.8 mi WSW 11.5 mph 27.6 mph 0.06 in Snow Light Snow
3:53 AM 28.9 °F 20.4 °F 27.0 °F 92% 29.40 in 3.0 mi West 9.2 mph 27.6 mph 0.06 in Snow Light Snow
4:09 AM 28.4 °F 18.5 °F 24.8 °F 86% 29.48 in 7.0 mi WSW 11.5 mph 35.7 mph 0.00 in   Overcast
4:41 AM 26.6 °F 16.8 °F 24.8 °F 93% 29.49 in 1.8 mi West 10.4 mph 27.6 mph 0.00 in Snow Light Snow
4:43 AM 26.6 °F 19.1 °F 24.8 °F 93% 29.49 in 1.2 mi Variable 6.9 mph 27.6 mph 0.00 in Snow Light Snow
4:46 AM 26.6 °F 17.5 °F 26.6 °F 100% 29.49 in 0.8 mi West 9.2 mph 20.7 mph 0.00 in Snow Light Snow
4:53 AM 27.0 °F 18.0 °F 26.1 °F 96% 29.39 in 0.8 mi WNW 9.2 mph 24.2 mph 0.01 in Snow Light Snow
4:59 AM 26.6 °F 16.8 °F 26.6 °F 100% 29.48 in 0.8 mi WNW 10.4 mph 28.8 mph 0.00 in Snow Light Snow
5:05 AM 26.6 °F 17.5 °F 24.8 °F 93% 29.48 in 1.0 mi NW 9.2 mph 28.8 mph 0.01 in Snow Light Snow
5:10 AM 26.6 °F 16.8 °F 24.8 °F 93% 29.47 in 2.0 mi WNW 10.4 mph 26.5 mph 0.01 in Snow Light Snow
5:17 AM 26.6 °F 19.1 °F 24.8 °F 93% 29.48 in 5.0 mi Variable 6.9 mph 24.2 mph 0.01 in Snow Light Snow
5:21 AM 26.6 °F 17.5 °F 24.8 °F 93% 29.48 in 2.5 mi WNW 9.2 mph 18.4 mph 0.01 in Snow Light Snow
5:23 AM 26.6 °F 17.5 °F 24.8 °F 93% 29.48 in 1.2 mi NW 9.2 mph 18.4 mph 0.01 in Snow Light Snow
5:27 AM 26.6 °F 16.8 °F 26.6 °F 100% 29.48 in 0.5 mi WNW 10.4 mph 26.5 mph 0.01 in Fog , Snow Light Snow
5:46 AM 26.6 °F 16.8 °F 24.8 °F 93% 29.48 in 0.5 mi NW 10.4 mph 21.9 mph 0.01 in Fog , Snow Light Snow
5:53 AM 26.1 °F 16.2 °F 25.0 °F 96% 29.40 in 0.8 mi WNW 10.4 mph 35.7 mph 0.02 in Snow Light Snow
6:26 AM 24.8 °F 16.1 °F 23.0 °F 93% 29.49 in 1.5 mi West 8.1 mph 20.7 mph 0.01 in Snow Light Snow
6:30 AM 24.8 °F 15.3 °F 23.0 °F 93% 29.49 in 3.0 mi WNW 9.2 mph 24.2 mph 0.01 in Snow Light Snow
6:53 AM 23.0 °F 12.4 °F 21.9 °F 96% 29.55 in 7.0 mi WSW 10.4 mph 21.9 mph 0.01 in Snow Light Snow
6:58 AM 23.0 °F 13.1 °F 21.2 °F 93% 29.48 in 3.0 mi WSW 9.2 mph 24.2 mph 0.00 in Snow Light Snow
7:03 AM 23.0 °F 12.4 °F 21.2 °F 93% 29.48 in 1.8 mi West 10.4 mph 27.6 mph 0.00 in Snow Light Snow
7:07 AM 23.0 °F 15.8 °F 21.2 °F 93% 29.48 in 1.2 mi Variable 5.8 mph 27.6 mph 0.00 in Snow Light Snow
7:16 AM 21.2 °F 13.6 °F 21.2 °F 100% 29.48 in 0.2 mi Variable 5.8 mph - 0.01 in Fog , Snow Snow
7:26 AM 21.2 °F 13.6 °F 21.2 °F 100% 29.49 in 0.5 mi Variable 5.8 mph - 0.02 in Fog , Snow Light Snow
7:36 AM 21.2 °F 10.1 °F 19.4 °F 93% 29.49 in 1.5 mi WSW 10.4 mph 18.4 mph 0.02 in Snow Light Snow
7:45 AM 19.4 °F 7.9 °F 17.6 °F 93% 29.50 in 3.0 mi WSW 10.4 mph 24.2 mph 0.02 in Snow Light Snow
7:53 AM 19.9 °F 9.3 °F 17.1 °F 89% 29.57 in 7.0 mi West 9.2 mph 21.9 mph 0.02 in Snow Light Snow
8:00 AM 19.4 °F 8.6 °F 17.6 °F 93% 29.49 in 9.0 mi West 9.2 mph 25.3 mph 0.00 in   Overcast
8:14 AM 19.4 °F 6.0 °F 17.6 °F 93% 29.49 in 1.5 mi WSW 13.8 mph 25.3 mph 0.00 in Snow Light Snow
8:16 AM 19.4 °F 7.9 °F 17.6 °F 93% 29.50 in 0.8 mi WSW 10.4 mph 27.6 mph 0.00 in Snow Light Snow
8:28 AM 19.4 °F 7.9 °F 15.8 °F 86% 29.50 in 1.8 mi SW 10.4 mph 25.3 mph 0.00 in Snow Light Snow
8:30 AM 19.4 °F 7.9 °F 15.8 °F 86% 29.49 in 4.0 mi WSW 10.4 mph 24.2 mph 0.00 in Snow Light Snow
8:48 AM 19.4 °F 6.6 °F 15.8 °F 86% 29.48 in 10.0 mi SW 12.7 mph 21.9 mph 0.00 in   Overcast
8:53 AM 21.0 °F 9.3 °F 17.1 °F 85% 29.57 in 10.0 mi SW 11.5 mph 21.9 mph 0.00 in   Overcast
9:01 AM 19.4 °F 6.6 °F 15.8 °F 86% 29.49 in 10.0 mi SW 12.7 mph 19.6 mph 0.00 in Snow Light Snow
9:09 AM 19.4 °F 7.2 °F 15.8 °F 86% 29.49 in 6.0 mi SW 11.5 mph 19.6 mph 0.00 in Snow Light Snow
9:18 AM 19.4 °F 6.0 °F 15.8 °F 86% 29.49 in 4.0 mi SW 13.8 mph 25.3 mph 0.00 in Snow Light Snow
9:31 AM 19.4 °F 6.6 °F 15.8 °F 86% 29.50 in 5.0 mi SW 12.7 mph 24.2 mph 0.00 in Snow Light Snow
9:50 AM 19.4 °F 8.6 °F 15.8 °F 86% 29.50 in 1.8 mi SSW 9.2 mph 19.6 mph 0.00 in Snow Light Snow
9:53 AM 19.0 °F 10.0 °F 16.0 °F 88% 29.60 in 1.0 mi Variable 6.9 mph 17.3 mph 0.00 in Snow Light Snow
10:02 AM 17.6 °F 8.2 °F 15.8 °F 93% 29.52 in 0.5 mi Variable 6.9 mph 20.7 mph 0.00 in Fog , Snow Snow
10:13 AM 17.6 °F 10.7 °F 15.8 °F 93% 29.52 in 0.2 mi Variable 4.6 mph - 0.00 in Fog , Snow Snow
10:24 AM 17.6 °F 7.3 °F 17.6 °F 100% 29.52 in 0.2 mi WSW 8.1 mph - 0.02 in Fog , Snow Heavy Snow
10:43 AM 19.4 °F 12.8 °F 17.6 °F 93% 29.53 in 0.2 mi Variable 4.6 mph - 0.04 in Fog , Snow Heavy Snow
10:53 AM 19.0 °F 13.9 °F 17.1 °F 92% 29.61 in 0.2 mi Variable 3.5 mph - 0.07 in Fog , Snow Heavy Snow
11:11 AM 19.4 °F 12.8 °F 17.6 °F 93% 29.52 in 1.0 mi Variable 4.6 mph - 0.01 in Snow Light Snow
11:14 AM 19.4 °F 12.8 °F 17.6 °F 93% 29.53 in 2.0 mi Variable 4.6 mph - 0.01 in Snow Light Snow
11:21 AM 19.4 °F 9.5 °F 17.6 °F 93% 29.53 in 6.0 mi WSW 8.1 mph - 0.01 in Snow Light Snow
11:28 AM 19.4 °F 14.3 °F 17.6 °F 93% 29.53 in 8.0 mi Variable 3.5 mph - 0.01 in   Overcast
11:38 AM 19.4 °F 11.5 °F 17.6 °F 93% 29.53 in 10.0 mi Variable 5.8 mph - 0.01 in   Overcast
11:53 AM 19.9 °F 11.1 °F 16.0 °F 85% 29.62 in 10.0 mi SW 6.9 mph - 0.01 in   Overcast
12:00 PM 19.4 °F 10.4 °F 14.0 °F 80% 29.52 in 10.0 mi Variable 6.9 mph - N/A   Overcast
12:32 PM 19.4 °F 12.8 °F 15.8 °F 86% 29.53 in 4.0 mi Variable 4.6 mph - 0.00 in Snow Light Snow
12:53 PM 19.0 °F 12.3 °F 16.0 °F 88% 29.62 in 10.0 mi Variable 4.6 mph - 0.00 in   Overcast
1:06 PM 17.6 °F 12.3 °F 14.0 °F 86% 29.53 in 10.0 mi Variable 3.5 mph - N/A   Overcast
1:28 PM 17.6 °F 12.3 °F 14.0 °F 86% 29.54 in 2.5 mi Variable 3.5 mph - 0.00 in Snow Light Snow
1:30 PM 17.6 °F 10.7 °F 14.0 °F 86% 29.54 in 1.0 mi Variable 4.6 mph - 0.00 in Snow Light Snow
1:35 PM 17.6 °F 10.7 °F 15.8 °F 93% 29.54 in 0.2 mi Variable 4.6 mph - 0.01 in Fog , Snow Snow
1:42 PM 17.6 °F - 15.8 °F 93% 29.54 in 0.2 mi Calm Calm - 0.02 in Fog , Snow Heavy Snow
1:53 PM 17.1 °F - 15.1 °F 92% 29.66 in 0.2 mi Calm Calm - 0.03 in Fog , Snow Light Snow
1:57 PM 17.6 °F 10.7 °F 15.8 °F 93% 29.54 in 1.0 mi Variable 4.6 mph - 0.00 in Snow Light Snow
1:59 PM 17.6 °F 9.3 °F 15.8 °F 93% 29.54 in 3.0 mi Variable 5.8 mph - 0.00 in Snow Light Snow
2:10 PM 17.6 °F 10.7 °F 15.8 °F 93% 29.54 in 7.0 mi Variable 4.6 mph - 0.00 in Snow Light Snow
2:23 PM 17.6 °F 10.7 °F 14.0 °F 86% 29.55 in 1.8 mi Variable 4.6 mph - 0.00 in Snow Light Snow
2:28 PM 17.6 °F 9.3 °F 15.8 °F 93% 29.55 in 1.0 mi Variable 5.8 mph - 0.01 in Snow Light Snow
2:32 PM 17.6 °F 10.7 °F 15.8 °F 93% 29.56 in 1.0 mi Variable 4.6 mph - 0.01 in Snow Light Snow
2:44 PM 17.6 °F 10.7 °F 15.8 °F 93% 29.57 in 1.2 mi Variable 4.6 mph - 0.01 in Snow Light Snow
2:47 PM 17.6 °F 9.3 °F 15.8 °F 93% 29.56 in 1.5 mi Variable 5.8 mph - 0.01 in Snow Light Snow
2:50 PM 17.6 °F 9.3 °F 15.8 °F 93% 29.56 in 1.2 mi SW 5.8 mph - 0.01 in Snow Light Snow
2:53 PM 17.1 °F 6.6 °F 14.0 °F 88% 29.68 in 1.0 mi SSW 8.1 mph - 0.01 in Snow Light Snow
2:55 PM 15.8 °F 6.1 °F 14.0 °F 93% 29.57 in 0.5 mi Variable 6.9 mph - 0.00 in Fog , Snow Snow
2:58 PM 15.8 °F 7.2 °F 14.0 °F 93% 29.57 in 0.2 mi Variable 5.8 mph - 0.00 in Fog , Snow Snow
3:02 PM 15.8 °F 7.2 °F 14.0 °F 93% 29.57 in 0.5 mi Variable 5.8 mph - 0.00 in Fog , Snow Light Snow
3:06 PM 15.8 °F 7.2 °F 14.0 °F 93% 29.57 in 1.0 mi Variable 5.8 mph - 0.00 in Snow Light Snow
3:08 PM 15.8 °F 8.6 °F 14.0 °F 93% 29.57 in 2.5 mi Variable 4.6 mph - 0.00 in Snow Light Snow
3:16 PM 15.8 °F 8.6 °F 14.0 °F 93% 29.58 in 0.8 mi Variable 4.6 mph - 0.00 in Snow Light Snow
3:20 PM 15.8 °F 7.2 °F 14.0 °F 93% 29.58 in 0.2 mi Variable 5.8 mph - 0.00 in Fog , Snow Snow
3:36 PM 15.8 °F 10.2 °F 14.0 °F 93% 29.58 in 0.2 mi Variable 3.5 mph - 0.03 in Fog , Snow Heavy Snow
3:50 PM 15.8 °F 10.2 °F 14.0 °F 93% 29.58 in 0.5 mi Variable 3.5 mph - 0.04 in Fog , Snow Snow
3:51 PM 16.0 °F 8.8 °F 14.0 °F 92% 29.71 in 0.5 mi Variable 4.6 mph - 0.04 in Fog , Snow Snow
4:05 PM 15.8 °F 10.2 °F 15.8 °F 100% 29.59 in 0.8 mi Variable 3.5 mph - 0.01 in Snow Light Snow
4:11 PM 15.8 °F - 15.8 °F 100% 29.59 in 1.5 mi Calm Calm - 0.01 in Snow Light Snow
4:15 PM 15.8 °F - 15.8 °F 100% 29.59 in 3.0 mi Calm Calm - 0.01 in Snow Light Snow
4:24 PM 15.8 °F 10.2 °F 15.8 °F 100% 29.59 in 2.0 mi Variable 3.5 mph - 0.01 in Snow Light Snow
4:39 PM 15.8 °F - 15.8 °F 100% 29.60 in 1.2 mi Calm Calm - 0.01 in   Overcast
4:53 PM 16.0 °F - 15.1 °F 96% 29.74 in 1.2 mi Calm Calm - 0.01 in   Overcast
5:03 PM 15.8 °F - 15.8 °F 100% 29.61 in 2.0 mi Calm Calm - N/A   Overcast
5:10 PM 15.8 °F 10.2 °F 14.0 °F 93% 29.61 in 9.0 mi Variable 3.5 mph - N/A   Overcast
5:18 PM 15.8 °F 8.6 °F 14.0 °F 93% 29.61 in 10.0 mi Variable 4.6 mph - N/A   Overcast
5:39 PM 15.8 °F 10.2 °F 12.2 °F 86% 29.61 in 10.0 mi SW 3.5 mph - N/A   Overcast
5:50 PM 15.8 °F 10.2 °F 12.2 °F 86% 29.61 in 10.0 mi SW 3.5 mph - N/A   Overcast
5:53 PM 15.1 °F 9.4 °F 12.9 °F 91% 29.75 in 10.0 mi SW 3.5 mph - N/A   Overcast
6:05 PM 15.8 °F - 12.2 °F 86% 29.61 in 1.5 mi Calm Calm - 0.00 in Snow Light Snow
6:09 PM 15.8 °F - 14.0 °F 93% 29.61 in 0.8 mi Calm Calm - 0.01 in Snow Light Snow
6:53 PM 16.0 °F - 14.0 °F 92% 29.78 in 1.0 mi Calm Calm - 0.04 in Snow Light Snow
7:16 PM 15.8 °F - 14.0 °F 93% 29.63 in 2.0 mi Calm Calm - 0.00 in   Overcast
7:24 PM 15.8 °F - 14.0 °F 93% 29.63 in 5.0 mi Calm Calm - 0.00 in   Overcast
7:35 PM 15.8 °F - 14.0 °F 93% 29.63 in 9.0 mi Calm Calm - 0.00 in   Overcast
7:51 PM 15.8 °F - 14.0 °F 93% 29.64 in 6.0 mi Calm Calm - 0.00 in Snow Light Snow
7:53 PM 16.0 °F - 14.0 °F 92% 29.81 in 6.0 mi Calm Calm - 0.00 in Snow Light Snow
8:01 PM 15.8 °F 10.2 °F 14.0 °F 93% 29.64 in 9.0 mi Variable 3.5 mph - 0.00 in   Overcast
8:29 PM 15.8 °F 10.2 °F 14.0 °F 93% 29.65 in 5.0 mi NNW 3.5 mph - 0.00 in   Overcast
8:36 PM 15.8 °F 8.6 °F 14.0 °F 93% 29.65 in 2.5 mi North 4.6 mph - 0.00 in   Overcast
8:39 PM 15.8 °F 10.2 °F 14.0 °F 93% 29.65 in 1.2 mi North 3.5 mph - 0.00 in Snow Light Snow
8:44 PM 15.8 °F 8.6 °F 14.0 °F 93% 29.65 in 0.2 mi Variable 4.6 mph - 0.01 in Fog , Snow Heavy Snow
8:53 PM 15.1 °F 9.4 °F 12.9 °F 91% 29.82 in 0.2 mi Variable 3.5 mph - 0.03 in Fog , Snow Heavy Snow
9:12 PM 12.2 °F 4.3 °F 10.4 °F 92% 29.64 in 0.5 mi Variable 4.6 mph - 0.02 in Fog , Snow Snow
9:53 PM 10.9 °F 4.7 °F 8.1 °F 88% 29.88 in 0.8 mi Variable 3.5 mph - 0.02 in Snow Light Snow
10:06 PM 10.4 °F - 8.6 °F 92% 29.68 in 1.0 mi Calm Calm - 0.01 in Snow Light Snow
10:39 PM 8.6 °F - 6.8 °F 92% 29.69 in 1.2 mi Calm Calm - 0.01 in Snow Light Snow
10:53 PM 9.0 °F - 6.1 °F 88% 29.92 in 0.8 mi Calm Calm - 0.01 in Snow Light Snow
11:31 PM 8.6 °F 2.0 °F 6.8 °F 92% 29.71 in 1.0 mi Variable 3.5 mph - 0.00 in Snow Light Snow
11:51 PM 6.8 °F - 5.0 °F 92% 29.72 in 0.8 mi Calm Calm - 0.00 in Snow Light Snow
11:53 PM 7.0 °F - 5.0 °F 92% 29.94 in 0.8 mi Calm Calm - 0.00 in Snow Light Snow